sat.trackr.live / text

‹ back to catalog

ONEWEB-0142

NORAD 47288 · 2020-100AG

PAYLOAD ACTIVE UNKNOWN

§ Identity

Operator
Country
UK
Launch date
2020-12-18
Launch site
VOSTO
Launch vehicle
Mass (kg)
RCS (m²)

Purposes: comms

External: N2YO · Heavens-Above · Gunter

§ Orbital elements

Epoch: 2026-05-25T03:10:48.424224Z

Period
109.72 min
Inclination
87.8953°
Eccentricity
0.0001701
Mean motion
13.12440699 rev/d
Perigee alt
1,212.4 km
Apogee alt
1,215.0 km
Semi-major
7,591.9 km
B*
-5.0240e-5
RAAN
355.2548°
Arg perigee
99.8879°
Mean anomaly
260.2441°
Rev number
26,164

§ Raw data

ONEWEB-01421 47288U 20100AG  26145.13250491 -.00000005  00000+0 -50240-4 0  99962 47288  87.8953 355.2548 0001701  99.8879 260.2441 13.12440699261649

JSON: /api/v1/satellites/47288 · /tle

For live sub-satellite position, see the globe view (requires WebGL).

§ Visibility from observer

Set your observer location to see the next 7 days of passes ≥ 10°. The values pass through the URL so the page stays shareable.

No JS? Fill the form by hand. The geolocation button needs JavaScript.